Погода в Новотырышкине

Россия / Алтайский край     52°05′01″N   84°54′36″E
темп.,
°C
ветер,
м/с
пор.,
м/с
влажн.,
%
обл.,
%
осадки,
мм/ч
давл.,
гПа
погр.,
м
2 июля, сб
сб201:00+15юз513543 0.0 1007436
04:00+12ююз335896 0.0 100855
07:00+13ююз236628 0.0 1009108
10:00+19з5939100 0.0 10081738
13:00+21з710335 0.0 10082430
16:00+20сз474930 0.0 10081256
19:00+20з254998 0.0 10071139
22:00+13ю11835 0.4 100810
3 июля, вс
вс301:00+11ю339045 1.2 100941
04:00+9ююз338933 0.0 100836
07:00+12ююз228233 0.1 100855
10:00+18зсз245448 0.1 1008864
13:00+21з583948 0.1 10072613
16:00+22зсз583691 0.0 10072875
19:00+19зсз24505 0.0 1008727
22:00+13ю22704 0.0 100925
4 июля, пн
пн401:00+11ю33773 0.1 100934
04:00+10ю22805 0.0 100831
07:00+13ю22705 0.0 100872
10:00+20ссв11485 0.0 1007854
13:00+23ссв343774 0.0 10062268
16:00+24св3435100 0.0 10052285
19:00+22в3451100 0.0 1004737
22:00+15юв33783 0.0 100343
5 июля, вт
вт501:00+14ююв327672 0.0 100229
04:00+13ююв336898 0.0 100039
07:00+16ю236297 0.0 100058
10:00+24юв1240100 0.0 999532
13:00+28ссв122899 0.0 9981684
16:00+21ююз4753100 0.3 1000350
19:00+21вюв2359100 0.3 1000157
22:00+17ююв3380100 0.1 100138
6 июля, ср
ср601:00+14ю478216 0.2 100199
04:00+16ю476978 0.0 1002149
07:00+15ю3680100 0.4 1003148
10:00+22зюз6134863 0.1 10042109
13:00+25зюз8123466 0.1 10042831
16:00+24з71140100 0.0 10042571
19:00+20ююз5959100 0.3 1005607
22:00+14ю34937 1.1 100769